Radiation Dose at Monitoring Post of Fukushima Daini Nuclear Power Station
Date,Time,MP-1(microSv/h),MP-2(microSv/h),MP-3(microSv/h),MP-4(microSv/h),MP-5(microSv/h),MP-6(microSv/h),MP-7(microSv/h),Wind Direction,Wind Velocity(m/s),Rain
2015/08/27,00:00,0.470,0.273,0.482,0.438,0.439,0.217,0.191,north,7.8,Yes
2015/08/27,00:10,0.474,0.278,0.483,0.437,0.446,0.217,0.191,north,7.3,Yes
2015/08/27,00:20,0.472,0.274,0.491,0.446,0.440,0.218,0.191,north,8.3,Yes
2015/08/27,00:30,0.476,0.277,0.483,0.441,0.446,0.216,0.190,north,6.9,Yes
2015/08/27,00:40,0.471,0.275,0.489,0.445,0.441,0.218,0.189,north,7.0,Yes
2015/08/27,00:50,0.476,0.276,0.487,0.446,0.444,0.217,0.191,north,8.3,Yes
2015/08/27,01:00,0.474,0.274,0.487,0.443,0.443,0.218,0.189,north,7.5,Yes
2015/08/27,01:10,0.473,0.274,0.491,0.448,0.445,0.219,0.190,north,8.1,Yes
2015/08/27,01:20,0.476,0.276,0.486,0.444,0.445,0.219,0.189,north,7.1,Yes
2015/08/27,01:30,0.474,0.275,0.491,0.448,0.441,0.218,0.190,north,7.0,Yes
2015/08/27,01:40,0.478,0.276,0.485,0.447,0.445,0.218,0.188,north,7.8,Yes
2015/08/27,01:50,0.473,0.273,0.492,0.446,0.441,0.218,0.189,north,8.0,Yes
2015/08/27,02:00,0.478,0.277,0.489,0.449,0.447,0.218,0.190,north,8.2,Yes
2015/08/27,02:10,0.476,0.274,0.489,0.445,0.441,0.217,0.188,north,8.3,Yes
2015/08/27,02:20,0.478,0.275,0.491,0.449,0.445,0.218,0.189,north,8.2,Yes
2015/08/27,02:30,0.476,0.275,0.488,0.446,0.442,0.217,0.189,north,8.9,Yes
2015/08/27,02:40,0.477,0.274,0.492,0.450,0.444,0.218,0.188,north,9.2,Yes
2015/08/27,02:50,0.476,0.276,0.486,0.445,0.443,0.217,0.189,north-northwest,10.1,Yes
2015/08/27,03:00,0.474,0.273,0.492,0.451,0.443,0.218,0.189,north,9.7,Yes
2015/08/27,03:10,0.481,0.276,0.489,0.449,0.444,0.218,0.188,north-northwest,9.5,Yes
2015/08/27,03:20,0.473,0.274,0.490,0.447,0.441,0.218,0.190,north-northwest,9.4,Yes
2015/08/27,03:30,0.479,0.277,0.490,0.449,0.445,0.218,0.188,north-northwest,8.4,Yes
2015/08/27,03:40,0.475,0.274,0.488,0.444,0.440,0.217,0.190,north-northwest,8.8,Yes
2015/08/27,03:50,0.478,0.277,0.492,0.450,0.446,0.220,0.190,north-northwest,9.2,Yes
2015/08/27,04:00,0.477,0.273,0.487,0.446,0.442,0.217,0.188,north,8.9,Yes
2015/08/27,04:10,0.476,0.275,0.493,0.450,0.446,0.221,0.189,north-northwest,8.9,Yes
2015/08/27,04:20,0.478,0.275,0.489,0.447,0.441,0.219,0.190,north-northwest,8.4,Yes
2015/08/27,04:30,0.475,0.275,0.493,0.450,0.446,0.218,0.188,north-northwest,8.6,Yes
2015/08/27,04:40,0.479,0.276,0.488,0.448,0.442,0.218,0.188,north,9.5,Yes
2015/08/27,04:50,0.475,0.274,0.493,0.448,0.445,0.218,0.187,north-northwest,8.8,Yes
2015/08/27,05:00,0.479,0.276,0.491,0.450,0.445,0.219,0.188,north,8.0,Yes
2015/08/27,05:10,0.477,0.273,0.490,0.447,0.443,0.218,0.188,north-northwest,8.1,Yes
2015/08/27,05:20,0.480,0.276,0.491,0.449,0.445,0.219,0.189,north-northwest,8.3,Yes
2015/08/27,05:30,0.474,0.273,0.486,0.444,0.441,0.218,0.190,north,8.0,Yes
2015/08/27,05:40,0.474,0.275,0.491,0.448,0.444,0.220,0.189,north,7.8,Yes
2015/08/27,05:50,0.476,0.275,0.486,0.442,0.441,0.220,0.188,north-northwest,8.3,Yes
2015/08/27,06:00,0.475,0.277,0.491,0.447,0.445,0.218,0.190,north-northwest,8.3,Yes
2015/08/27,06:10,0.478,0.275,0.487,0.443,0.441,0.219,0.189,north-northwest,7.5,Yes
2015/08/27,06:20,0.473,0.275,0.489,0.444,0.444,0.219,0.189,north-northwest,7.6,Yes
2015/08/27,06:30,0.478,0.275,0.488,0.446,0.440,0.220,0.189,north-northwest,8.1,Yes
2015/08/27,06:40,0.474,0.274,0.484,0.442,0.443,0.218,0.188,north,7.7,Yes
2015/08/27,06:50,0.474,0.275,0.490,0.444,0.444,0.219,0.190,north,8.2,Yes
2015/08/27,07:00,0.479,0.274,0.486,0.442,0.442,0.219,0.189,north,7.8,Yes
2015/08/27,07:10,0.473,0.277,0.490,0.447,0.446,0.219,0.191,north,8.2,Yes
2015/08/27,07:20,0.478,0.275,0.488,0.443,0.443,0.219,0.189,north,8.3,Yes
2015/08/27,07:30,0.471,0.275,0.488,0.445,0.444,0.217,0.190,north,8.7,Yes
2015/08/27,07:40,0.478,0.275,0.489,0.447,0.444,0.219,0.189,north-northwest,7.7,Yes
2015/08/27,07:50,0.473,0.274,0.487,0.441,0.443,0.219,0.189,north-northwest,7.8,Yes
2015/08/27,08:00,0.474,0.276,0.493,0.447,0.444,0.219,0.189,north,7.5,Yes
2015/08/27,08:10,0.476,0.273,0.485,0.444,0.441,0.219,0.189,north,8.5,Yes
2015/08/27,08:20,0.473,0.275,0.491,0.448,0.446,0.217,0.189,north,7.8,Yes
2015/08/27,08:30,0.478,0.273,0.490,0.448,0.440,0.219,0.189,north,7.6,Yes
2015/08/27,08:40,0.472,0.275,0.485,0.444,0.446,0.217,0.189,north,7.1,Yes
2015/08/27,08:50,0.475,0.273,0.491,0.447,0.441,0.217,0.188,north,7.5,Yes
2015/08/27,09:00,0.474,0.273,0.483,0.439,0.441,0.217,0.188,north,6.8,Yes
2015/08/27,09:10,0.469,0.276,0.488,0.444,0.445,0.217,0.187,north-northeast,7.5,Yes
2015/08/27,09:20,0.476,0.273,0.487,0.441,0.439,0.219,0.189,north,9.7,Yes
2015/08/27,09:30,0.471,0.276,0.484,0.441,0.447,0.218,0.189,north-northeast,10.3,Yes
2015/08/27,09:40,0.476,0.273,0.488,0.444,0.440,0.218,0.188,north,8.2,Yes
2015/08/27,09:50,0.473,0.275,0.482,0.440,0.443,0.216,0.189,north,10.1,Yes
2015/08/27,10:00,0.470,0.275,0.488,0.446,0.444,0.217,0.188,north-northeast,8.6,Yes
2015/08/27,10:10,0.476,0.274,0.489,0.441,0.440,0.219,0.189,north,8.8,Yes
2015/08/27,10:20,0.470,0.275,0.486,0.445,0.444,0.216,0.188,north,8.6,Yes
2015/08/27,10:30,0.474,0.274,0.490,0.448,0.442,0.218,0.189,north,7.3,Yes
2015/08/27,10:40,0.473,0.275,0.485,0.443,0.444,0.218,0.190,north,7.8,Yes
2015/08/27,10:50,0.473,0.274,0.490,0.447,0.442,0.217,0.188,north,7.7,Yes
2015/08/27,11:00,0.477,0.274,0.486,0.446,0.441,0.218,0.189,north,9.3,Yes
2015/08/27,11:10,-,-,-,-,-,-,-,-,-,-
2015/08/27,11:20,0.475,0.274,0.490,0.447,0.441,0.217,0.189,north,8.6,Yes
2015/08/27,11:30,0.475,0.274,0.485,0.442,0.446,0.218,0.189,north,8.2,Yes
2015/08/27,11:40,0.474,0.274,0.490,0.448,0.441,0.218,0.188,north,8.7,Yes
2015/08/27,11:50,-,-,-,-,-,-,-,-,-,-
2015/08/27,12:00,0.472,0.275,0.487,0.445,0.444,0.218,0.187,north,8.8,Yes
2015/08/27,12:10,0.477,0.273,0.492,0.449,0.441,0.218,0.190,north,8.1,Yes
2015/08/27,12:20,-,-,-,-,-,-,-,-,-,-
2015/08/27,12:30,-,-,-,-,-,-,-,-,-,-
2015/08/27,12:40,0.472,0.273,0.486,0.443,0.445,0.218,0.188,north,7.1,Yes
2015/08/27,12:50,0.468,0.275,0.483,0.438,0.439,0.217,0.188,north,8.6,Yes
2015/08/27,13:00,0.473,0.272,0.483,0.442,0.443,0.218,0.188,north,7.6,Yes
2015/08/27,13:10,0.470,0.275,0.481,0.440,0.444,0.217,0.188,north,8.1,Yes
2015/08/27,13:20,0.474,0.274,0.486,0.446,0.441,0.219,0.190,north,7.8,Yes
2015/08/27,13:30,0.474,0.277,0.486,0.444,0.446,0.217,0.188,north,7.9,Yes
2015/08/27,13:40,0.471,0.275,0.488,0.445,0.441,0.218,0.189,north,6.7,Yes
2015/08/27,13:50,0.479,0.274,0.489,0.448,0.447,0.219,0.189,north,6.8,Yes
2015/08/27,14:00,0.474,0.275,0.485,0.444,0.443,0.217,0.188,north,7.6,Yes
2015/08/27,14:10,0.476,0.273,0.493,0.447,0.443,0.219,0.190,north,6.9,Yes
2015/08/27,14:20,0.476,0.275,0.486,0.446,0.445,0.217,0.187,north,6.3,Yes
2015/08/27,14:30,0.473,0.274,0.490,0.445,0.441,0.218,0.189,north,6.6,Yes
2015/08/27,14:40,0.478,0.276,0.490,0.450,0.447,0.218,0.188,north,8.0,Yes
2015/08/27,14:50,0.472,0.274,0.487,0.444,0.439,0.217,0.187,north,6.6,Yes
2015/08/27,15:00,0.476,0.274,0.491,0.448,0.444,0.220,0.188,north,7.0,Yes
2015/08/27,15:10,0.476,0.275,0.487,0.449,0.444,0.217,0.188,north,7.4,Yes
2015/08/27,15:20,0.474,0.273,0.489,0.446,0.443,0.217,0.189,north,6.9,Yes
2015/08/27,15:30,0.477,0.277,0.488,0.450,0.444,0.217,0.188,north,6.4,Yes
2015/08/27,15:40,0.474,0.272,0.486,0.443,0.441,0.219,0.188,north,7.5,Yes
2015/08/27,15:50,0.477,0.274,0.490,0.449,0.446,0.219,0.189,north,7.3,Yes
2015/08/27,16:00,0.475,0.274,0.486,0.446,0.440,0.217,0.188,north-northeast,6.3,Yes
2015/08/27,16:10,0.475,0.274,0.490,0.445,0.446,0.219,0.189,north,7.0,Yes
2015/08/27,16:20,0.476,0.275,0.489,0.449,0.443,0.218,0.188,north,6.2,Yes
2015/08/27,16:30,0.472,0.274,0.486,0.444,0.443,0.218,0.188,north,8.5,Yes
2015/08/27,16:40,0.479,0.276,0.491,0.449,0.444,0.217,0.187,north,7.5,Yes
2015/08/27,16:50,0.474,0.272,0.486,0.445,0.440,0.218,0.189,north,7.1,Yes
2015/08/27,17:00,0.476,0.275,0.491,0.445,0.447,0.218,0.187,north,5.6,Yes
2015/08/27,17:10,0.477,0.275,0.486,0.448,0.441,0.217,0.188,north,7.1,Yes
2015/08/27,17:20,0.473,0.274,0.487,0.444,0.445,0.220,0.188,north,6.9,Yes
2015/08/27,17:30,0.477,0.275,0.489,0.449,0.443,0.218,0.188,north,6.9,Yes
2015/08/27,17:40,0.472,0.273,0.484,0.445,0.443,0.219,0.190,north,7.8,Yes
2015/08/27,17:50,0.476,0.275,0.490,0.448,0.445,0.218,0.188,north,6.7,Yes
2015/08/27,18:00,0.474,0.272,0.483,0.445,0.442,0.218,0.189,north,7.5,Yes
2015/08/27,18:10,0.473,0.275,0.489,0.444,0.446,0.218,0.188,north,6.9,Yes
2015/08/27,18:20,0.477,0.273,0.487,0.449,0.442,0.219,0.189,north,6.1,Yes
2015/08/27,18:30,0.472,0.274,0.486,0.443,0.447,0.219,0.188,north,7.2,Yes
2015/08/27,18:40,0.476,0.274,0.489,0.447,0.440,0.219,0.189,north,6.6,Yes
2015/08/27,18:50,0.472,0.274,0.484,0.444,0.446,0.219,0.189,north,6.3,Yes
2015/08/27,19:00,0.476,0.274,0.488,0.446,0.443,0.219,0.189,north,6.3,Yes
2015/08/27,19:10,0.474,0.275,0.485,0.446,0.445,0.219,0.189,north,6.0,Yes
2015/08/27,19:20,0.473,0.276,0.489,0.443,0.444,0.220,0.190,north,6.1,Yes
2015/08/27,19:30,0.474,0.275,0.486,0.446,0.443,0.220,0.190,north,6.7,Yes
2015/08/27,19:40,0.473,0.276,0.486,0.444,0.447,0.220,0.190,north,6.3,Yes
2015/08/27,19:50,0.478,0.274,0.489,0.448,0.442,0.220,0.191,north,6.7,Yes
2015/08/27,20:00,0.475,0.276,0.485,0.444,0.447,0.221,0.190,north-northwest,6.4,Yes
2015/08/27,20:10,0.479,0.276,0.491,0.448,0.442,0.219,0.190,north-northwest,6.1,Yes
2015/08/27,20:20,0.477,0.273,0.487,0.448,0.449,0.220,0.190,north-northwest,5.9,Yes
2015/08/27,20:30,0.476,0.275,0.491,0.447,0.444,0.220,0.191,north-northwest,6.1,Yes
2015/08/27,20:40,0.476,0.274,0.487,0.450,0.445,0.219,0.188,north,5.8,Yes
2015/08/27,20:50,0.472,0.276,0.489,0.443,0.444,0.220,0.190,north,5.7,Yes
2015/08/27,21:00,0.477,0.273,0.488,0.452,0.442,0.218,0.188,north,6.4,Yes
2015/08/27,21:10,0.471,0.275,0.485,0.445,0.443,0.220,0.190,north,5.3,Yes
2015/08/27,21:20,0.478,0.272,0.491,0.448,0.442,0.219,0.190,north,5.4,Yes
2015/08/27,21:30,0.474,0.275,0.486,0.449,0.446,0.219,0.189,north,5.5,Yes
2015/08/27,21:40,0.477,0.275,0.492,0.446,0.441,0.220,0.189,north,5.0,Yes
2015/08/27,21:50,0.477,0.275,0.487,0.450,0.448,0.218,0.188,north-northwest,5.1,Yes
2015/08/27,22:00,0.474,0.276,0.489,0.444,0.443,0.219,0.190,north-northwest,5.1,Yes
2015/08/27,22:10,0.476,0.274,0.491,0.449,0.446,0.219,0.190,north-northwest,6.1,Yes
2015/08/27,22:20,0.474,0.276,0.485,0.446,0.443,0.220,0.190,north-northwest,6.0,Yes
2015/08/27,22:30,0.477,0.274,0.491,0.447,0.444,0.218,0.189,north-northwest,5.5,Yes
2015/08/27,22:40,0.474,0.276,0.485,0.446,0.444,0.220,0.190,north,6.3,Yes
2015/08/27,22:50,0.476,0.273,0.490,0.445,0.442,0.220,0.188,north,5.3,Yes
2015/08/27,23:00,0.476,0.275,0.488,0.449,0.446,0.219,0.189,north,5.3,Yes
2015/08/27,23:10,0.474,0.274,0.488,0.442,0.442,0.220,0.187,north,5.0,Yes
2015/08/27,23:20,0.477,0.273,0.490,0.449,0.445,0.217,0.189,north,4.3,Yes
2015/08/27,23:30,0.472,0.276,0.487,0.445,0.442,0.220,0.188,north,5.0,Yes
2015/08/27,23:40,0.477,0.273,0.491,0.447,0.447,0.219,0.190,north-northeast,5.6,Yes
2015/08/27,23:50,0.474,0.275,0.486,0.449,0.443,0.219,0.189,north-northeast,5.0,Yes
